Regional Weather Roundup
Issued by NWS

Home | Current Version | Previous Version | Graphics & Text | Print | Product List | Glossary On
Versions: 1 2 3 4 5 6 7 8 9 10 11 12 13 14 15 16 17 18 19 20 21 22 23 24 25 26 27 28 29 30 31 32 33 34 35 36 37 38 39 40 41 42 43 44 45 46 47 48 49 50
000
ASUS43 KLSX 020059
RWRMO

WEATHER SUMMARY FOR MISSOURI
NATIONAL WEATHER SERVICE SPRINGFIELD MO
800 PM CDT MON JUN 01 2015

NOTE: "FAIR" INDICATES FEW OR NO CLOUDS BELOW 12,000 FEET WITH NO
       SIGNIFICANT WEATHER AND/OR OBSTRUCTIONS TO VISIBILITY.
       CURRENT SKY AND/OR WEATHER CONDITIONS ARE NOT AVAILABLE FOR
       CHILLICOTHE AND FARMINGTON.

MOZ001>031-035>038-043-044-053-054-020200-
...NORTHERN AND WESTERN MISSOURI...

CITY           SKY/WX    TMP DP  RH WIND       PRES   REMARKS
KANSAS CTY INT CLOUDY    63  54  72 E13       30.12S
KANSAS C DTWN  CLOUDY    64  53  67 E8        30.11S
LEE`S SUMMIT   CLOUDY    62  54  74 E7        30.13S
ST JOSEPH      CLOUDY    66  55  67 SE9       30.10F
CHILLICOTHE      N/A     64  56  75 SE5       30.15S
KIRKSVILLE     CLOUDY    62  56  80 SE5       30.16S

$$
MOZ066>068-077>081-088>096-101>105-020200-
...SOUTHWEST MISSOURI...

CITY           SKY/WX    TMP DP  RH WIND       PRES   REMARKS
SPRINGFIELD    CLEAR     64  56  75 NE12      30.10S
JOPLIN         CLEAR     69  57  65 VRB6      30.08S

$$
MOZ032>034-039>042-045>050-055>058-069>072-020200-
...CENTRAL MISSOURI...

CITY           SKY/WX    TMP DP  RH WIND       PRES   REMARKS
COLUMBIA       CLOUDY    62  56  80 E5        30.15R
JEFFERSON CITY CLOUDY    63  55  75 NE5       30.14S
ROLLA          CLOUDY    59  56  89 CALM      30.13S
SEDALIA        CLOUDY    62  54  74 E6        30.14F
OSAGE BEACH    CLOUDY    61  54  77 N3        30.13F

$$
MOZ051-052-059>065-020200-
...EAST CENTRAL MISSOURI...

CITY           SKY/WX    TMP DP  RH WIND       PRES   REMARKS
ST LOUIS INTL  NOT AVBL
SPIRIT OF STL  CLOUDY    62  58  86 W3        30.13S
ST CHARLES     CLOUDY    63  56  78 N5        30.13S

$$
MOZ072>076-082>087-097>100-106>115-020200-
...SOUTH CENTRAL AND SOUTHEAST MISSOURI...

CITY           SKY/WX    TMP DP  RH WIND       PRES   REMARKS
CAPE GIRARDEAU CLOUDY    62  58  86 N9        30.11S
FARMINGTON     CLOUDY    59  57  94 N3        30.17S
POPLAR BLUFF   CLOUDY    63  58  83 N8        30.10S
WEST PLAINS    CLOUDY    62  56  80 NE8       30.12S

$$



USA.gov is the U.S. government's official web portal to all federal, state and local government web resources and services.